Flag for U.S.A. Weather past 2 weeks in Casper, Wyoming, U.S.A.

Now
14 °F

Clear.


Feels Like: 0 °F
Forecast: 6 / 32 °F
Wind: 13 mph from Southwest

Location: Natrona County International Airport

Current Time: Mar 4, 2015 at 11:37:44 PM

Latest Report: Mar 4, 2015 at 10:53 PM


Visibility: 10 mi

Pressure: 30.35 "Hg

Humidity: 56%

Dew point: 1 °F

Location of CasperLocation

Historic Weather in Casper — Graph

°F

Casper temperature yesterday

Maximum temperature yesterday: 21 °F (at 12:53 AM)
Minimum temperature yesterday: -11 °F (at 10:53 PM)
Average temperature yesterday: 7 °F

Past Weeks' High & Low Weather Summary

 TemperatureHumidityPressure
High56 °F (Feb 19, 1:53 PM)96% (Feb 20, 11:53 PM)30.69 "Hg (Feb 20, 11:53 PM)
Low-11 °F (Mar 3, 10:53 PM)24% (Feb 19, 3:53 PM)29.62 "Hg (Mar 2, 6:01 PM)
Average20 °F70%30.17 "Hg
* Reported Feb 17 9:53 PM — Mar 4 9:53 PM, Casper, Weather by CustomWeather, © 2015

Note: Actual official high and low records may vary slightly from our data, if they occured in-between our weather recording intervals... More about our weather records

Advertising

Casper weather history for previous 24 hours

 ConditionsComfort  
Time TempWeatherWind HumidityBarometerVisibility
9:53 PM
Wed, Mar 4
11 °FClear.14 mph56%30.37 "Hg10 mi
8:53 PM5 °FClear.10 mph66%30.42 "Hg10 mi
7:53 PM7 °FClear.6 mph63%30.40 "Hg10 mi
6:53 PM8 °FClear.12 mph63%30.42 "Hg10 mi
5:53 PM10 °FSunny.12 mph64%30.40 "Hg10 mi
4:53 PM13 °FSunny.14 mph61%30.38 "Hg10 mi
3:53 PM14 °FSunny.15 mph64%30.38 "Hg10 mi
2:53 PM15 °FSunny.14 mph64%30.37 "Hg10 mi
1:53 PM15 °FSunny.16 mph58%30.37 "Hg10 mi
12:53 PM14 °FSunny.21 mph61%30.37 "Hg10 mi
11:53 AM13 °FSunny.20 mph64%30.39 "Hg10 mi
10:53 AM10 °FSunny.20 mph69%30.41 "Hg10 mi
9:53 AM6 °FSunny.16 mph73%30.42 "Hg10 mi
8:53 AM0 °FSunny.12 mph79%30.46 "Hg10 mi
7:53 AM-1 °FSunny.13 mph79%30.45 "Hg10 mi
6:53 AM-6 °FSunny.9 mph78%30.42 "Hg10 mi
5:53 AM-6 °FPassing clouds.8 mphN/A30.40 "Hg10 mi
4:53 AM-6 °FClear.9 mph78%30.34 "Hg10 mi
3:53 AM-7 °FClear.7 mph79%30.34 "Hg10 mi
2:53 AM-8 °FClear.9 mph83%30.34 "Hg10 mi
1:53 AM-6 °FClear.7 mph78%30.33 "Hg10 mi
12:53 AM-5 °FClear.7 mphN/A30.31 "Hg10 mi
11:53 PM
Tue, Mar 3
-6 °FClear.5 mph78%30.31 "Hg10 mi
Weather by CustomWeather, © 2015

See weather overviewHow to use our weather pages